Location: Kuppenheim
(48.8299°N, 8.2568°E)
Time: 09:54:20
(UTC+00:00)

Nadezhda 4 Rocket - Pass Details

Date: 20 June 2021
Orbit: 950 x 991 km, 82.9° (Epoch: 01 August)

Event Time Altitude Azimuth Distance (km) Brightness Sun altitude
Exits shadow 00:30:50 22° 173° (S) 1,940 5.0 -16.4°
Maximum altitude 00:34:51 69° 95° (E) 1,020 4.1 -16.2°
Drops below altitude 10° 00:40:57 10° 13° (NNE) 2,688 7.7 -15.9°
Sets 00:43:27 0° 12° (NNE) 3,637 8.8 -15.8°
